[[{"header":{"parameterUnit":"m.s-1","parameterCategory":1,"la1":30.2991,"la2":30.254,"lo1":-89.0895,"lo2":-89.0444,"dy":0.0017,"dx":0.0017,"nx":28,"ny":28,"refTime":"2024-09-29T21:00:00:Z","depth":0,"parameterNumber":2,"parameterNumberName":"U-component_of_WINDS"},"data":[0,0,0,0,0,0,0,0,0,0,0,0,0,0,0,0,0,0,0,0,0,0,0,0,0,0,0,0,0,0,0,0,0,0,0,0,0,0,0,0,0,0,0,0,0,0,0,0,0,0,0,0,0,0,0,0,0,0,-1.02,-1.02,0,-1.0174,-1.0173,-1.0173,-1.0143,-1.0142,-1.0142,-1.0141,-1.0115,-1.0114,-1.0114,0,0,0,0,0,0,0,0,0,0,0,0,0,-1.0224,-1.0224,-1.02,-1.0199,-1.0199,-1.0174,-1.0173,-1.0173,-1.0143,-1.0142,-1.0142,-1.0141,-1.0115,-1.0114,-1.0114,0,0,0,0,0,0,0,0,0,0,0,0,0,-1.0207,-1.0224,-1.02,-1.0181,-1.0179,-1.0174,-1.0173,-1.0173,-1.0143,-1.0142,-1.0142,-1.0141,-1.0115,-1.0114,-1.0114,-1.0125,0,0,-1.0113,-1.0112,0,0,0,0,0,0,0,0,-1.0208,-1.0206,-1.0184,-1.0182,-1.018,-1.0161,-1.0172,-1.0157,-1.0143,-1.0157,-1.0141,-1.0141,-1.013,-1.0129,-1.0125,-1.0123,-1.0122,-1.0113,-1.0112,-1.0112,-1.0112,0,0,0,0,0,0,0,-1.0209,-1.0207,-1.0189,-1.0184,-1.0181,-1.0174,-1.0171,-1.0169,-1.0148,-1.0155,-1.0153,-1.0151,-1.0129,-1.0126,-1.0124,-1.0122,-1.0113,-1.0112,-1.0112,-1.0112,-1.0128,-1.0129,0,0,0,0,0,0,-1.0213,-1.0208,-1.019,-1.0189,-1.0193,-1.0174,-1.0171,-1.0168,-1.0148,-1.0144,-1.0151,-1.0149,-1.0127,-1.0125,-1.0123,-1.0135,-1.0112,-1.0112,-1.0111,-1.0127,-1.0128,-1.0129,0,0,0,0,0,0,-1.0214,-1.0212,-1.0191,-1.0198,-1.0195,-1.0174,-1.0171,-1.0168,-1.0164,-1.0144,-1.014,-1.0152,-1.0126,-1.0124,-1.0125,-1.0134,-1.0111,-1.0111,-1.0127,-1.0128,-1.0129,-1.0159,0,0,0,0,0,0,-1.0215,-1.0212,-1.0216,-1.0198,-1.0194,-1.0193,-1.0172,-1.0167,-1.0163,-1.0161,-1.0144,-1.014,-1.0126,-1.0126,-1.0124,-1.0133,-1.0111,-1.0126,-1.0127,-1.0128,-1.0157,-1.0161,-1.0164,0,0,0,0,0,-1.0216,-1.0226,-1.0217,-1.0215,-1.0199,-1.0194,-1.0192,-1.0175,-1.0164,-1.0168,-1.0155,-1.0141,-1.0133,-1.0126,-1.0124,-1.0133,-1.0125,-1.0127,-1.0128,-1.0155,-1.016,-1.0164,0,0,0,0,0,0,-1.0246,-1.0223,-1.0213,-1.0217,-1.0208,-1.0189,-1.0193,-1.018,-1.0173,-1.0171,-1.015,-1.0146,-1.015,-1.0141,-1.0134,-1.0142,-1.0127,-1.0128,-1.0148,-1.0152,-1.0156,-1.0158,-1.011,0,0,0,0,0,-1.0253,-1.025,-1.0231,-1.0237,-1.0232,-1.0214,-1.0211,-1.0198,-1.0188,-1.0183,-1.0171,-1.0161,-1.0156,-1.0154,-1.0148,-1.0155,-1.0151,-1.016,-1.0164,-1.0167,-1.0168,-1.0172,-1.0176,-1.0134,-1.0134,-1.0134,0,0,-1.0267,-1.0255,-1.0255,-1.0242,-1.0233,-1.0232,-1.021,-1.0209,-1.0208,-1.0183,-1.0183,-1.0174,-1.0161,-1.0165,-1.0167,-1.0158,-1.0179,-1.0169,-1.0171,-1.0171,-1.0174,-1.0178,-1.0182,-1.0135,-1.0135,-1.0135,0,0,-1.0293,-1.0283,-1.0287,-1.0279,-1.0266,-1.0253,-1.0254,-1.0237,-1.023,-1.023,-1.0211,-1.0209,-1.0201,-1.0193,-1.0188,-1.0211,-1.0198,-1.021,-1.0229,-1.0233,-1.0236,-1.0239,-1.0248,-1.0251,-1.0211,-1.0212,-1.0212,0,-1.0313,-1.031,-1.0291,-1.0291,-1.0287,-1.0264,-1.0268,-1.0261,-1.0246,-1.0244,-1.0235,-1.0225,-1.0215,-1.0217,-1.0223,-1.0219,-1.022,-1.0212,-1.0237,-1.024,-1.0242,-1.025,-1.0254,-1.0213,-1.0213,-1.0213,-1.0213,0,-1.0335,-1.0333,-1.0338,-1.0325,-1.0321,-1.0323,-1.0304,-1.0302,-1.029,-1.0279,-1.0279,-1.0266,-1.0258,-1.0257,-1.0245,-1.0258,-1.0253,-1.0241,-1.0225,-1.0248,-1.0256,-1.0258,-1.0216,-1.0215,-1.0214,-1.0214,0,0,-1.038,-1.0356,-1.0359,-1.0353,-1.0336,-1.0334,-1.0335,-1.0327,-1.0326,-1.0317,-1.0318,-1.0312,-1.03,-1.0295,-1.0281,-1.0285,-1.0305,-1.0272,-1.0271,-1.0279,-1.0318,-1.0329,-1.0333,-1.0295,-1.0296,-1.0296,-1.032,0,-1.0404,-1.0404,-1.0387,-1.0393,-1.0391,-1.037,-1.037,-1.0361,-1.035,-1.0347,-1.0335,-1.0331,-1.0316,-1.0312,-1.0314,-1.0302,-1.0312,-1.03,-1.0296,-1.0296,-1.0301,-1.0336,-1.0347,-1.037,-1.0322,-1.0323,-1.0323,0,-1.0431,-1.0424,-1.043,-1.0413,-1.0412,-1.0413,-1.0405,-1.0402,-1.039,-1.0382,-1.0376,-1.0361,-1.0361,-1.0345,-1.0346,-1.0337,-1.0335,-1.0328,-1.0329,-1.0329,-1.0312,-1.0338,-1.0377,-1.0381,-1.0327,-1.0327,-1.0327,0,-1.0465,-1.0456,-1.0458,-1.0454,-1.0435,-1.0436,-1.0428,-1.0416,-1.0412,-1.0405,-1.0402,-1.0395,-1.0391,-1.0385,-1.0369,-1.0359,-1.0371,-1.0354,-1.0365,-1.0366,-1.0369,-1.0369,-1.0409,-1.0366,-1.0366,-1.0366,-1.0366,0,-1.0493,-1.0498,-1.0473,-1.0474,-1.0479,-1.0459,-1.0464,-1.0454,-1.0443,-1.0442,-1.0423,-1.0423,-1.04,-1.0398,-1.0385,-1.0387,-1.0385,-1.0379,-1.0376,-1.0381,-1.0382,-1.038,-1.0379,-1.0367,-1.0367,-1.0367,-1.0366,0,-1.0532,-1.0515,-1.0516,-1.0498,-1.0493,-1.0498,-1.0482,-1.0483,-1.047,-1.047,-1.0469,-1.045,-1.0445,-1.0428,-1.042,-1.0411,-1.0418,-1.0411,-1.0422,-1.042,-1.0433,-1.0432,-1.0473,-1.0478,-1.0431,-1.0431,-1.0432,0,-1.0552,-1.0554,-1.0537,-1.0535,-1.0528,-1.0525,-1.0521,-1.0502,-1.0499,-1.0486,-1.0488,-1.0483,-1.0477,-1.0471,-1.0457,-1.045,-1.0444,-1.0458,-1.0442,-1.0448,-1.0445,-1.0445,-1.0446,-1.0462,-1.0463,-1.0463,-1.0464,0,-1.0589,-1.0581,-1.0576,-1.0569,-1.0565,-1.0558,-1.055,-1.055,-1.0528,-1.0526,-1.0521,-1.0517,-1.0508,-1.0503,-1.0494,-1.0486,-1.0472,-1.0469,-1.0471,-1.0477,-1.0484,-1.0482,-1.0433,-1.0468,-1.0468,-1.0467,-1.0467,-1.0467,-1.0619,-1.0621,-1.0609,-1.0605,-1.0597,-1.059,-1.059,-1.0577,-1.0573,-1.0565,-1.0554,-1.0551,-1.0539,-1.0526,-1.0519,-1.0516,-1.0508,-1.0511,-1.0512,-1.0514,-1.0517,-1.0484,-1.0515,-1.0514,-1.0514,-1.0514,-1.0514,0,-1.0657,-1.0648,-1.0644,-1.0633,-1.063,-1.0616,-1.0607,-1.0605,-1.0603,-1.0593,-1.0588,-1.0583,-1.0578,-1.0563,-1.0556,-1.0557,-1.0551,-1.0556,-1.0557,-1.0555,-1.0524,-1.0523,-1.0562,-1.0562,-1.0562,-1.0562,-1.0562,-1.0562,-1.0676,-1.0678,-1.0669,-1.0667,-1.0658,-1.0655,-1.0651,-1.0645,-1.0637,-1.0632,-1.0628,-1.0618,-1.0607,-1.0599,-1.0594,-1.0589,-1.0588,-1.0596,-1.059,-1.0562,-1.0557,-1.0553,-1.0552,-1.0596,-1.0596,-1.0621,-1.0622,-1.0622]},{"header":{"parameterUnit":"m.s-1","parameterCategory":1,"la1":30.2991,"la2":30.254,"lo1":-89.0895,"lo2":-89.0444,"dy":0.0017,"dx":0.0017,"nx":28,"ny":28,"refTime":"2024-09-29T21:00:00:Z","depth":0,"parameterNumber":3,"parameterNumberName":"V-component_of_WINDS"},"data":[0,0,0,0,0,0,0,0,0,0,0,0,0,0,0,0,0,0,0,0,0,0,0,0,0,0,0,0,0,0,0,0,0,0,0,0,0,0,0,0,0,0,0,0,0,0,0,0,0,0,0,0,0,0,0,0,0,0,-2.7894,-2.7894,0,-2.7885,-2.7885,-2.7885,-2.7848,-2.7847,-2.7846,-2.7845,-2.7835,-2.7836,-2.7836,0,0,0,0,0,0,0,0,0,0,0,0,0,-2.7881,-2.7881,-2.7894,-2.7894,-2.7894,-2.7885,-2.7885,-2.7885,-2.7848,-2.7847,-2.7846,-2.7845,-2.7835,-2.7836,-2.7836,0,0,0,0,0,0,0,0,0,0,0,0,0,-2.7881,-2.7882,-2.7895,-2.7875,-2.7873,-2.7885,-2.7885,-2.7885,-2.7848,-2.7847,-2.7846,-2.7845,-2.7835,-2.7836,-2.7836,-2.7866,0,0,-2.7839,-2.7839,0,0,0,0,0,0,0,0,-2.7881,-2.7881,-2.7878,-2.7876,-2.7874,-2.7866,-2.7876,-2.7879,-2.7849,-2.7858,-2.7845,-2.7844,-2.7847,-2.7846,-2.7847,-2.7866,-2.7865,-2.7839,-2.7839,-2.784,-2.784,0,0,0,0,0,0,0,-2.7881,-2.7881,-2.7891,-2.7878,-2.7876,-2.7867,-2.7865,-2.7877,-2.7859,-2.7857,-2.7854,-2.7853,-2.7845,-2.7847,-2.7847,-2.7865,-2.7839,-2.7839,-2.784,-2.784,-2.791,-2.7911,0,0,0,0,0,0,-2.7884,-2.7882,-2.7891,-2.789,-2.7874,-2.7868,-2.7866,-2.787,-2.7859,-2.7856,-2.7855,-2.7852,-2.7846,-2.7846,-2.7846,-2.7882,-2.784,-2.784,-2.7841,-2.7908,-2.791,-2.7911,0,0,0,0,0,0,-2.7884,-2.7885,-2.7891,-2.7885,-2.7885,-2.7869,-2.7874,-2.7871,-2.7872,-2.7857,-2.7854,-2.7859,-2.7845,-2.7845,-2.7862,-2.7881,-2.7841,-2.7841,-2.7907,-2.7909,-2.7911,-2.7953,0,0,0,0,0,0,-2.7883,-2.7885,-2.7896,-2.7886,-2.7886,-2.7907,-2.7875,-2.7871,-2.7873,-2.787,-2.7861,-2.7858,-2.7844,-2.7861,-2.7863,-2.7881,-2.7842,-2.7905,-2.7908,-2.791,-2.795,-2.7956,-2.7962,0,0,0,0,0,-2.7883,-2.7908,-2.7897,-2.7898,-2.79,-2.7909,-2.7909,-2.7892,-2.7875,-2.7886,-2.7877,-2.7858,-2.7878,-2.7863,-2.7865,-2.7884,-2.7904,-2.7907,-2.791,-2.7947,-2.7955,-2.7961,0,0,0,0,0,0,-2.792,-2.7906,-2.7894,-2.7916,-2.7914,-2.7902,-2.7916,-2.79,-2.7903,-2.7899,-2.7878,-2.7876,-2.7897,-2.7892,-2.7875,-2.7913,-2.7888,-2.7892,-2.7916,-2.7923,-2.7929,-2.793,-2.7843,0,0,0,0,0,-2.7931,-2.794,-2.7927,-2.7948,-2.7948,-2.7932,-2.7935,-2.7923,-2.7919,-2.7918,-2.791,-2.7908,-2.7913,-2.7918,-2.7922,-2.7948,-2.7947,-2.7962,-2.7968,-2.7973,-2.7977,-2.7992,-2.7999,-2.7922,-2.7922,-2.7922,0,0,-2.7954,-2.7947,-2.7954,-2.7955,-2.7952,-2.7962,-2.7932,-2.7943,-2.795,-2.792,-2.7936,-2.793,-2.7926,-2.7948,-2.7957,-2.7944,-2.7998,-2.7977,-2.7981,-2.7982,-2.7996,-2.8003,-2.801,-2.7924,-2.7923,-2.7923,0,0,-2.8,-2.7996,-2.8014,-2.8011,-2.8007,-2.7997,-2.8001,-2.7992,-2.7987,-2.8003,-2.7981,-2.7989,-2.7999,-2.7997,-2.7998,-2.8045,-2.8028,-2.8047,-2.8078,-2.8093,-2.8099,-2.8104,-2.8122,-2.8129,-2.805,-2.805,-2.805,0,-2.8029,-2.8043,-2.8025,-2.8038,-2.804,-2.8013,-2.8032,-2.803,-2.8027,-2.8029,-2.8015,-2.8028,-2.8023,-2.8045,-2.8057,-2.8057,-2.8062,-2.8048,-2.81,-2.8105,-2.8109,-2.8126,-2.8133,-2.8053,-2.8052,-2.8052,-2.8052,0,-2.8079,-2.8089,-2.8104,-2.8103,-2.8106,-2.8122,-2.8106,-2.8111,-2.8099,-2.809,-2.8107,-2.81,-2.8104,-2.8108,-2.8095,-2.8128,-2.8121,-2.8103,-2.8078,-2.812,-2.8135,-2.8142,-2.8056,-2.8055,-2.8054,-2.8054,0,0,-2.8149,-2.8138,-2.8144,-2.8144,-2.8138,-2.8145,-2.816,-2.8163,-2.8169,-2.8168,-2.818,-2.819,-2.8174,-2.8175,-2.8162,-2.8174,-2.8214,-2.8155,-2.8155,-2.8168,-2.8252,-2.8266,-2.8274,-2.8202,-2.8203,-2.8204,-2.8253,0,-2.8194,-2.8219,-2.8204,-2.8231,-2.8241,-2.8216,-2.8229,-2.8227,-2.8219,-2.8226,-2.8218,-2.8225,-2.8203,-2.8204,-2.8215,-2.8207,-2.8231,-2.8203,-2.8214,-2.8215,-2.8218,-2.8282,-2.8297,-2.8343,-2.8259,-2.826,-2.826,0,-2.825,-2.8253,-2.8282,-2.8275,-2.8278,-2.829,-2.8293,-2.83,-2.8297,-2.8291,-2.8292,-2.8276,-2.829,-2.8265,-2.8284,-2.8266,-2.827,-2.8266,-2.8268,-2.8269,-2.8241,-2.8286,-2.8357,-2.8364,-2.8269,-2.8269,-2.8268,0,-2.8301,-2.8311,-2.833,-2.833,-2.8322,-2.8331,-2.8328,-2.8324,-2.8328,-2.833,-2.8333,-2.8336,-2.8339,-2.8342,-2.8328,-2.831,-2.835,-2.8323,-2.8346,-2.8346,-2.8356,-2.8356,-2.8429,-2.8356,-2.8356,-2.8356,-2.8356,0,-2.8354,-2.8372,-2.8352,-2.8364,-2.8385,-2.8367,-2.8388,-2.8382,-2.8379,-2.8389,-2.8368,-2.8378,-2.8358,-2.8366,-2.8355,-2.8374,-2.8375,-2.837,-2.8367,-2.8373,-2.8374,-2.8376,-2.8373,-2.8358,-2.8358,-2.8357,-2.8357,0,-2.8413,-2.84,-2.842,-2.8411,-2.8409,-2.8425,-2.8417,-2.8428,-2.8419,-2.8433,-2.8435,-2.8421,-2.843,-2.8416,-2.8422,-2.8415,-2.8442,-2.8433,-2.8443,-2.8441,-2.8466,-2.8464,-2.8544,-2.8554,-2.8474,-2.8475,-2.8475,0,-2.8449,-2.8463,-2.8456,-2.8462,-2.846,-2.8469,-2.8473,-2.8456,-2.8461,-2.846,-2.8471,-2.8478,-2.8483,-2.8498,-2.8489,-2.8494,-2.8486,-2.8514,-2.8487,-2.8493,-2.8488,-2.8488,-2.849,-2.852,-2.8521,-2.8522,-2.8522,0,-2.8513,-2.8507,-2.8513,-2.8518,-2.8524,-2.8526,-2.8528,-2.8533,-2.8515,-2.8522,-2.8531,-2.8535,-2.8543,-2.855,-2.8554,-2.855,-2.8534,-2.8531,-2.8537,-2.8543,-2.8549,-2.8548,-2.846,-2.8529,-2.8529,-2.8528,-2.8528,-2.8527,-2.8563,-2.8575,-2.8572,-2.8581,-2.858,-2.8582,-2.8592,-2.8585,-2.8592,-2.8598,-2.8587,-2.8599,-2.8596,-2.8599,-2.8598,-2.8607,-2.8595,-2.8603,-2.8606,-2.8608,-2.8613,-2.8547,-2.8608,-2.8607,-2.8607,-2.8607,-2.8607,0,-2.8628,-2.8625,-2.8633,-2.8636,-2.8643,-2.8627,-2.8627,-2.8634,-2.8645,-2.8645,-2.865,-2.8661,-2.8669,-2.866,-2.8666,-2.8676,-2.8668,-2.8678,-2.8678,-2.8678,-2.8623,-2.8618,-2.8684,-2.8684,-2.8684,-2.8684,-2.8684,-2.8684,-2.8662,-2.8682,-2.8675,-2.8695,-2.8692,-2.8704,-2.8707,-2.8708,-2.8708,-2.8722,-2.8728,-2.8722,-2.8719,-2.8725,-2.8731,-2.8728,-2.8732,-2.8745,-2.874,-2.8689,-2.8681,-2.8674,-2.867,-2.8746,-2.8746,-2.8794,-2.8795,-2.8795]}]]